QPF
0.01 0.01 0.01 0.00 0.00 0.00 0.00 0.01 0.01 0.03 0.03 0.03 0.04 0.05 0.04 0.03 0.05 0.07 0.08 0.09 0.10 0.10 0.11 0.11 0.10 0.09 0.08 0.08 0.07 0.05 0.04 0.03 0.02 0.01 0.01 0.01 0.01 0.01 0.01 0.01 0.01 0.01 0.01 0.01
0.01 0.01 0.01 0.00 0.01 0.01 0.01 0.02 0.04 0.05 0.05 0.06 0.06 0.07 0.06 0.06 0.06 0.06 0.08 0.10 0.11 0.11 0.11 0.11 0.09 0.09 0.08 0.07 0.06 0.05 0.03 0.02 0.01 0.01 0.01 0.00 0.00 0.00 0.00 0.00 0.00 0.00 0.00 0.00
0.00 0.01 0.00 0.00 0.00 0.01 0.01 0.02 0.05 0.06 0.06 0.08 0.09 0.10 0.08 0.06 0.06 0.06 0.08 0.10 0.11 0.11 0.12 0.11 0.09 0.07 0.06 0.06 0.05 0.03 0.02 0.02 0.02 0.01 0.01 0.01 0.00 0.00 0.00 0.00 0.00 0.00 0.00 0.00
0.00 0.00 0.00 0.00 0.00 0.00 0.01 0.01 0.02 0.03 0.04 0.06 0.07 0.07 0.07 0.07 0.09 0.08 0.07 0.08 0.10 0.10 0.10 0.08 0.07 0.05 0.04 0.03 0.02 0.01 0.01 0.01 0.01 0.01 0.01 0.00 0.00 0.00 0.00 0.00 0.00 0.00 0.00 0.00
0.00 0.00 0.00 0.00 0.00 0.00 0.01 0.01 0.01 0.03 0.03 0.04 0.05 0.06 0.09 0.09 0.11 0.11 0.09 0.09 0.10 0.10 0.09 0.07 0.05 0.03 0.02 0.01 0.00 0.01 0.01 0.00 0.00 0.00 0.00 0.00 0.00 0.00 0.00 0.00 0.00 0.00 0.00 0.00
0.00 0.00 0.00 0.00 0.00 0.01 0.01 0.01 0.01 0.02 0.05 0.08 0.10 0.09 0.10 0.09 0.09 0.10 0.11 0.11 0.08 0.06 0.05 0.04 0.03 0.02 0.01 0.00 0.00 0.01 0.00 0.00 0.00 0.00 0.00 0.00 0.00 0.00 0.00 0.00 0.00 0.00 0.00 0.00
0.00 0.00 0.00 0.00 0.01 0.02 0.01 0.01 0.02 0.02 0.03 0.06 0.12 0.13 0.09 0.06 0.05 0.06 0.07 0.07 0.06 0.04 0.03 0.02 0.01 0.01 0.00 0.00 0.00 0.00 0.00 0.00 0.00 0.00 0.00 0.00 0.00 0.00 0.00 0.00 0.00 0.00 0.00 0.00
0.00 0.00 0.00 0.00 0.00 0.01 0.01 0.00 0.01 0.02 0.02 0.02 0.03 0.05 0.05 0.04 0.03 0.02 0.02 0.02 0.02 0.01 0.01 0.01 0.00 0.00 0.00 0.00 0.00 0.00 0.00 0.00 0.00 0.00 0.00 0.00 0.00 0.00 0.00 0.00 0.00 0.00 0.00 0.00
0.00 0.00 0.00 0.00 0.00 0.00 0.00 0.01 0.01 0.01 0.01 0.01 0.01 0.01 0.01 0.01 0.01 0.01 0.01 0.01 0.01 0.00 0.00 0.00 0.00 0.00 0.00 0.00 0.00 0.00 0.00 0.00 0.00 0.00 0.00 0.00 0.00 0.00 0.00 0.00 0.00 0.00 0.00 0.00
0.00 0.00 0.00 0.00 0.00 0.00 0.00 0.01 0.01 0.00 0.00 0.00 0.01 0.01 0.01 0.01 0.01 0.01 0.00 0.00 0.00 0.00 0.00 0.00 0.00 0.00 0.00 0.00 0.00 0.00 0.00 0.00 0.00 0.00 0.00 0.00 0.00 0.00 0.00 0.00 0.00 0.00 0.00 0.00
0.00 0.00 0.00 0.00 0.00 0.00 0.00 0.00 0.00 0.00 0.00 0.00 0.01 0.01 0.01 0.01 0.01 0.00 0.00 0.00 0.00 0.00 0.00 0.00 0.00 0.00 0.00 0.00 0.00 0.00 0.00 0.00 0.00 0.00 0.00 0.00 0.00 0.00 0.00 0.00 0.00 0.00 0.00 0.00
0.00 0.00 0.00 0.00 0.00 0.00 0.00 0.00 0.00 0.00 0.00 0.00 0.00 0.00 0.00 0.01 0.00 0.00 0.00 0.00 0.00 0.00 0.00 0.00 0.00 0.00 0.00 0.00 0.00 0.00 0.00 0.00 0.00 0.00 0.00 0.00 0.00 0.00 0.00 0.00 0.00 0.00 0.00 0.01
0.00 0.00 0.00 0.00 0.00 0.00 0.00 0.00 0.00 0.00 0.00 0.00 0.00 0.00 0.00 0.00 0.00 0.00 0.00 0.00 0.00 0.00 0.00 0.00 0.00 0.00 0.00 0.00 0.00 0.00 0.00 0.00 0.00 0.00 0.00 0.00 0.00 0.00 0.00 0.00 0.00 0.00 0.01 0.01
0.00 0.00 0.00 0.00 0.00 0.00 0.00 0.00 0.00 0.00 0.00 0.00 0.00 0.00 0.00 0.00 0.00 0.00 0.00 0.00 0.00 0.00 0.00 0.00 0.00 0.00 0.00 0.00 0.00 0.00 0.00 0.00 0.00 0.00 0.00 0.00 0.00 0.00 0.00 0.00 0.00 0.01 0.01 0.01
0.00 0.00 0.00 0.00 0.00 0.00 0.00 0.00 0.00 0.00 0.00 0.00 0.00 0.00 0.00 0.00 0.00 0.00 0.00 0.00 0.00 0.00 0.00 0.00 0.00 0.00 0.00 0.00 0.00 0.00 0.00 0.00 0.00 0.00 0.00 0.00 0.00 0.00 0.00 0.00 0.01 0.01 0.01 0.01
0.00 0.00 0.00 0.00 0.00 0.00 0.00 0.00 0.00 0.00 0.00 0.00 0.00 0.00 0.00 0.00 0.00 0.00 0.00 0.00 0.00 0.00 0.00 0.00 0.00 0.00 0.00 0.00 0.00 0.00 0.00 0.00 0.00 0.00 0.00 0.00 0.00 0.00 0.00 0.00 0.01 0.01 0.01 0.02
0.00 0.00 0.00 0.00 0.00 0.00 0.00 0.00 0.00 0.00 0.00 0.00 0.00 0.00 0.00 0.00 0.00 0.00 0.00 0.00 0.00 0.00 0.00 0.00 0.00 0.00 0.00 0.00 0.00 0.00 0.00 0.00 0.00 0.00 0.00 0.00 0.00 0.00 0.00 0.00 0.00 0.01 0.01 0.01
0.00 0.00 0.00 0.00 0.00 0.00 0.00 0.00 0.00 0.00 0.00 0.00 0.00 0.00 0.00 0.00 0.00 0.00 0.00 0.00 0.00 0.00 0.00 0.00 0.00 0.00 0.00 0.00 0.00 0.00 0.00 0.00 0.00 0.00 0.00 0.00 0.00 0.00 0.00 0.00 0.00 0.00 0.00 0.01
0.00 0.00 0.00 0.00 0.00 0.00 0.00 0.00 0.00 0.00 0.00 0.00 0.00 0.00 0.00 0.00 0.00 0.00 0.00 0.00 0.00 0.00 0.00 0.00 0.00 0.00 0.00 0.00 0.00 0.00 0.00 0.00 0.00 0.00 0.00 0.00 0.00 0.00 0.00 0.00 0.00 0.00 0.00 0.00
0.00 0.00 0.00 0.00 0.00 0.00 0.00 0.00 0.00 0.00 0.00 0.00 0.00 0.00 0.00 0.00 0.00 0.00 0.00 0.00 0.00 0.00 0.00 0.00 0.00 0.00 0.00 0.00 0.00 0.00 0.00 0.00 0.00 0.00 0.00 0.00 0.00 0.00 0.00 0.00 0.00 0.00 0.00 0.00
0.00 0.00 0.00 0.00 0.00 0.00 0.00 0.00 0.00 0.00 0.00 0.00 0.00 0.00 0.00 0.00 0.00 0.00 0.00 0.00 0.00 0.00 0.00 0.00 0.00 0.00 0.00 0.00 0.00 0.00 0.00 0.00 0.00 0.00 0.00 0.00 0.00 0.00 0.00 0.00 0.00 0.00 0.00 0.00
0.00 0.00 0.00 0.00 0.00 0.00 0.00 0.00 0.00 0.00 0.00 0.00 0.00 0.00 0.00 0.00 0.00 0.00 0.00 0.00 0.00 0.00 0.00 0.00 0.00 0.00 0.00 0.00 0.00 0.00 0.00 0.00 0.00 0.00 0.00 0.00 0.00 0.00 0.00 0.00 0.00 0.00 0.00 0.00
0.00 0.00 0.00 0.00 0.00 0.00 0.00 0.00 0.00 0.00 0.00 0.00 0.00 0.00 0.00 0.00 0.00 0.00 0.00 0.00 0.00 0.00 0.00 0.00 0.00 0.00 0.00 0.00 0.00 0.00 0.00 0.00 0.00 0.00 0.00 0.00 0.00 0.00 0.00 0.00 0.00 0.00 0.00 0.00
0.00 0.00 0.00 0.00 0.00 0.00 0.00 0.00 0.00 0.00 0.00 0.00 0.00 0.00 0.00 0.00 0.00 0.00 0.00 0.00 0.00 0.00 0.00 0.00 0.00 0.00 0.00 0.00 0.00 0.00 0.00 0.00 0.00 0.00 0.00 0.00 0.00 0.00 0.00 0.00 0.00 0.00 0.00 0.00
0.00 0.00 0.00 0.00 0.00 0.00 0.00 0.00 0.00 0.00 0.00 0.00 0.00 0.00 0.00 0.00 0.00 0.00 0.00 0.00 0.00 0.00 0.00 0.00 0.00 0.00 0.00 0.00 0.00 0.00 0.00 0.00 0.00 0.00 0.00 0.00 0.00 0.00 0.00 0.00 0.00 0.00 0.00 0.00
0.00 0.00 0.00 0.00 0.00 0.00 0.00 0.00 0.00 0.00 0.00 0.00 0.00 0.00 0.00 0.00 0.00 0.00 0.00 0.00 0.00 0.00 0.00 0.00 0.00 0.00 0.00 0.00 0.00 0.00 0.00 0.00 0.00 0.00 0.00 0.00 0.00 0.00 0.00 0.00 0.00 0.00 0.00 0.00
0.00 0.00 0.00 0.00 0.00 0.00 0.00 0.00 0.00 0.00 0.00 0.00 0.00 0.00 0.00 0.00 0.00 0.00 0.00 0.00 0.00 0.00 0.00 0.00 0.00 0.00 0.00 0.00 0.00 0.00 0.00 0.00 0.00 0.00 0.00 0.00 0.00 0.00 0.00 0.00 0.00 0.00 0.00 0.00
MSLP
1014.52 1014.82 1015.07 1015.27 1015.43 1015.54 1015.63 1015.70 1015.78 1015.87 1015.99 1016.17 1016.41 1016.73 1017.14 1017.62 1018.18 1018.80 1019.46 1020.14 1020.80 1021.43 1022.02 1022.55 1023.02 1023.44 1023.81 1024.15 1024.45 1024.72 1024.97 1025.20 1025.40 1025.56 1025.70 1025.81 1025.90 1025.96 1026.02 1026.07 1026.12 1026.16 1026.21 1026.24
1015.37 1015.67 1015.88 1016.00 1016.04 1016.02 1015.98 1015.95 1015.94 1015.99 1016.12 1016.33 1016.65 1017.07 1017.57 1018.15 1018.78 1019.45 1020.14 1020.81 1021.46 1022.08 1022.64 1023.15 1023.61 1024.03 1024.40 1024.73 1025.04 1025.31 1025.56 1025.77 1025.96 1026.11 1026.23 1026.33 1026.39 1026.44 1026.47 1026.49 1026.51 1026.52 1026.53 1026.51
1016.12 1016.40 1016.57 1016.62 1016.58 1016.48 1016.36 1016.26 1016.22 1016.26 1016.42 1016.69 1017.07 1017.57 1018.15 1018.79 1019.47 1020.17 1020.86 1021.52 1022.14 1022.71 1023.24 1023.72 1024.16 1024.56 1024.91 1025.24 1025.54 1025.80 1026.04 1026.24 1026.41 1026.54 1026.65 1026.72 1026.77 1026.80 1026.81 1026.81 1026.79 1026.77 1026.74 1026.69
1016.75 1016.99 1017.11 1017.12 1017.04 1016.90 1016.75 1016.64 1016.61 1016.68 1016.88 1017.21 1017.67 1018.23 1018.86 1019.54 1020.25 1020.94 1021.61 1022.24 1022.82 1023.35 1023.84 1024.28 1024.69 1025.06 1025.40 1025.70 1025.98 1026.22 1026.44 1026.62 1026.76 1026.87 1026.95 1027.01 1027.04 1027.04 1027.04 1027.02 1026.98 1026.93 1026.87 1026.80
1017.24 1017.43 1017.52 1017.50 1017.40 1017.27 1017.14 1017.07 1017.09 1017.22 1017.49 1017.88 1018.40 1019.01 1019.68 1020.37 1021.07 1021.75 1022.39 1022.97 1023.50 1023.99 1024.43 1024.83 1025.20 1025.54 1025.85 1026.13 1026.38 1026.60 1026.78 1026.92 1027.03 1027.12 1027.17 1027.20 1027.21 1027.21 1027.18 1027.15 1027.10 1027.03 1026.95 1026.85
1017.58 1017.73 1017.79 1017.77 1017.69 1017.60 1017.54 1017.54 1017.63 1017.85 1018.19 1018.65 1019.22 1019.86 1020.54 1021.24 1021.92 1022.56 1023.15 1023.69 1024.17 1024.61 1025.01 1025.37 1025.70 1026.00 1026.28 1026.52 1026.73 1026.90 1027.05 1027.15 1027.23 1027.28 1027.30 1027.32 1027.31 1027.30 1027.27 1027.24 1027.18 1027.11 1027.02 1026.90
1017.78 1017.90 1017.95 1017.95 1017.92 1017.91 1017.93 1018.03 1018.22 1018.53 1018.95 1019.47 1020.08 1020.74 1021.42 1022.10 1022.74 1023.34 1023.88 1024.36 1024.79 1025.18 1025.53 1025.85 1026.14 1026.41 1026.64 1026.84 1027.01 1027.14 1027.23 1027.30 1027.34 1027.36 1027.36 1027.36 1027.35 1027.34 1027.32 1027.29 1027.24 1027.17 1027.07 1026.95
1017.86 1017.95 1018.02 1018.06 1018.11 1018.19 1018.33 1018.54 1018.84 1019.24 1019.73 1020.30 1020.94 1021.60 1022.27 1022.91 1023.50 1024.05 1024.54 1024.97 1025.34 1025.68 1025.98 1026.26 1026.50 1026.72 1026.91 1027.07 1027.19 1027.27 1027.32 1027.35 1027.36 1027.35 1027.34 1027.34 1027.34 1027.33 1027.33 1027.31 1027.28 1027.22 1027.13 1027.00
1017.81 1017.92 1018.02 1018.14 1018.28 1018.47 1018.72 1019.04 1019.45 1019.94 1020.49 1021.11 1021.75 1022.41 1023.04 1023.64 1024.18 1024.67 1025.10 1025.47 1025.79 1026.08 1026.33 1026.56 1026.76 1026.93 1027.07 1027.18 1027.25 1027.30 1027.31 1027.30 1027.29 1027.27 1027.25 1027.25 1027.26 1027.28 1027.30 1027.30 1027.29 1027.25 1027.17 1027.04
1017.67 1017.81 1017.98 1018.18 1018.43 1018.74 1019.11 1019.54 1020.04 1020.60 1021.21 1021.85 1022.49 1023.12 1023.72 1024.27 1024.76 1025.18 1025.55 1025.86 1026.14 1026.37 1026.57 1026.75 1026.90 1027.02 1027.12 1027.18 1027.21 1027.22 1027.20 1027.17 1027.14 1027.12 1027.11 1027.12 1027.14 1027.18 1027.22 1027.26 1027.26 1027.24 1027.17 1027.05
1017.45 1017.65 1017.90 1018.21 1018.57 1018.99 1019.48 1020.01 1020.60 1021.22 1021.86 1022.50 1023.14 1023.74 1024.29 1024.78 1025.21 1025.58 1025.89 1026.15 1026.37 1026.55 1026.70 1026.83 1026.94 1027.02 1027.07 1027.09 1027.09 1027.07 1027.03 1026.99 1026.96 1026.94 1026.93 1026.96 1027.00 1027.06 1027.12 1027.17 1027.20 1027.19 1027.13 1027.01
1017.17 1017.45 1017.80 1018.21 1018.69 1019.23 1019.82 1020.44 1021.09 1021.75 1022.42 1023.06 1023.67 1024.23 1024.74 1025.18 1025.55 1025.87 1026.12 1026.33 1026.50 1026.64 1026.75 1026.83 1026.90 1026.94 1026.96 1026.95 1026.93 1026.89 1026.85 1026.81 1026.77 1026.76 1026.77 1026.81 1026.86 1026.94 1027.01 1027.07 1027.11 1027.10 1027.05 1026.94
1016.87 1017.24 1017.69 1018.21 1018.80 1019.44 1020.12 1020.81 1021.51 1022.21 1022.87 1023.51 1024.09 1024.61 1025.07 1025.47 1025.80 1026.06 1026.28 1026.44 1026.57 1026.67 1026.74 1026.79 1026.82 1026.83 1026.83 1026.81 1026.77 1026.73 1026.69 1026.66 1026.64 1026.64 1026.66 1026.71 1026.78 1026.85 1026.93 1026.99 1027.02 1027.02 1026.97 1026.86
1016.56 1017.02 1017.57 1018.20 1018.89 1019.62 1020.37 1021.12 1021.86 1022.57 1023.24 1023.85 1024.41 1024.90 1025.32 1025.67 1025.96 1026.19 1026.37 1026.51 1026.61 1026.67 1026.72 1026.74 1026.74 1026.74 1026.72 1026.69 1026.65 1026.62 1026.59 1026.57 1026.57 1026.59 1026.63 1026.69 1026.76 1026.83 1026.90 1026.96 1026.98 1026.98 1026.92 1026.82
1016.28 1016.83 1017.47 1018.19 1018.97 1019.77 1020.57 1021.37 1022.12 1022.84 1023.50 1024.10 1024.63 1025.09 1025.48 1025.81 1026.07 1026.28 1026.44 1026.55 1026.63 1026.67 1026.70 1026.70 1026.69 1026.67 1026.65 1026.62 1026.59 1026.57 1026.56 1026.56 1026.58 1026.62 1026.68 1026.74 1026.82 1026.89 1026.96 1027.00 1027.02 1027.00 1026.95 1026.85
1016.03 1016.66 1017.39 1018.18 1019.02 1019.87 1020.72 1021.53 1022.30 1023.02 1023.67 1024.25 1024.76 1025.20 1025.57 1025.88 1026.13 1026.33 1026.48 1026.58 1026.65 1026.69 1026.70 1026.69 1026.67 1026.65 1026.62 1026.59 1026.58 1026.57 1026.58 1026.61 1026.65 1026.71 1026.79 1026.87 1026.95 1027.03 1027.09 1027.13 1027.14 1027.12 1027.06 1026.97
1015.85 1016.54 1017.33 1018.18 1019.06 1019.94 1020.81 1021.63 1022.40 1023.10 1023.74 1024.30 1024.80 1025.23 1025.60 1025.91 1026.16 1026.36 1026.51 1026.61 1026.68 1026.71 1026.72 1026.70 1026.68 1026.65 1026.62 1026.59 1026.59 1026.60 1026.63 1026.68 1026.75 1026.83 1026.93 1027.03 1027.12 1027.21 1027.28 1027.32 1027.33 1027.32 1027.27 1027.18
1015.72 1016.46 1017.30 1018.18 1019.08 1019.97 1020.84 1021.65 1022.41 1023.10 1023.72 1024.28 1024.77 1025.20 1025.57 1025.88 1026.15 1026.36 1026.52 1026.63 1026.70 1026.74 1026.74 1026.72 1026.69 1026.65 1026.62 1026.60 1026.60 1026.62 1026.66 1026.74 1026.83 1026.94 1027.06 1027.18 1027.30 1027.40 1027.48 1027.54 1027.57 1027.56 1027.53 1027.46
1015.68 1016.45 1017.30 1018.19 1019.09 1019.98 1020.82 1021.61 1022.35 1023.02 1023.63 1024.17 1024.66 1025.10 1025.48 1025.81 1026.09 1026.33 1026.50 1026.63 1026.71 1026.75 1026.76 1026.74 1026.70 1026.65 1026.61 1026.59 1026.59 1026.62 1026.67 1026.76 1026.87 1027.00 1027.15 1027.30 1027.44 1027.57 1027.68 1027.76 1027.81 1027.83 1027.81 1027.76
1015.71 1016.50 1017.36 1018.23 1019.11 1019.96 1020.77 1021.53 1022.24 1022.88 1023.47 1024.01 1024.50 1024.95 1025.34 1025.70 1026.00 1026.26 1026.46 1026.61 1026.70 1026.74 1026.75 1026.73 1026.68 1026.63 1026.59 1026.56 1026.56 1026.59 1026.65 1026.75 1026.88 1027.03 1027.20 1027.37 1027.54 1027.70 1027.84 1027.95 1028.03 1028.07 1028.08 1028.06
1015.84 1016.64 1017.47 1018.32 1019.15 1019.96 1020.72 1021.44 1022.10 1022.72 1023.29 1023.82 1024.31 1024.77 1025.18 1025.55 1025.88 1026.16 1026.38 1026.54 1026.65 1026.71 1026.72 1026.70 1026.66 1026.60 1026.55 1026.53 1026.52 1026.55 1026.62 1026.73 1026.87 1027.04 1027.22 1027.42 1027.62 1027.80 1027.97 1028.11 1028.22 1028.29 1028.33 1028.32
1016.06 1016.85 1017.65 1018.45 1019.23 1019.98 1020.69 1021.35 1021.98 1022.56 1023.11 1023.63 1024.12 1024.58 1025.00 1025.39 1025.74 1026.03 1026.27 1026.45 1026.57 1026.64 1026.66 1026.65 1026.61 1026.57 1026.53 1026.51 1026.51 1026.55 1026.63 1026.74 1026.89 1027.07 1027.27 1027.48 1027.69 1027.90 1028.09 1028.25 1028.38 1028.48 1028.54 1028.55
1016.37 1017.13 1017.89 1018.64 1019.36 1020.05 1020.70 1021.31 1021.89 1022.44 1022.96 1023.47 1023.95 1024.41 1024.84 1025.23 1025.59 1025.89 1026.14 1026.33 1026.46 1026.55 1026.58 1026.59 1026.57 1026.55 1026.53 1026.52 1026.55 1026.60 1026.69 1026.82 1026.98 1027.17 1027.37 1027.59 1027.81 1028.02 1028.22 1028.39 1028.54 1028.65 1028.72 1028.76
1016.73 1017.46 1018.18 1018.87 1019.53 1020.16 1020.75 1021.31 1021.85 1022.37 1022.87 1023.35 1023.82 1024.27 1024.70 1025.09 1025.44 1025.74 1025.99 1026.19 1026.34 1026.43 1026.49 1026.52 1026.54 1026.54 1026.56 1026.59 1026.64 1026.73 1026.84 1026.98 1027.15 1027.34 1027.55 1027.76 1027.98 1028.19 1028.38 1028.55 1028.70 1028.82 1028.90 1028.95
1017.10 1017.80 1018.47 1019.11 1019.72 1020.29 1020.84 1021.36 1021.86 1022.35 1022.82 1023.29 1023.74 1024.18 1024.59 1024.96 1025.30 1025.59 1025.84 1026.03 1026.19 1026.30 1026.39 1026.45 1026.50 1026.56 1026.62 1026.70 1026.79 1026.91 1027.06 1027.22 1027.40 1027.59 1027.79 1028.00 1028.20 1028.39 1028.57 1028.73 1028.87 1028.98 1029.07 1029.13
1017.43 1018.09 1018.72 1019.31 1019.88 1020.41 1020.92 1021.41 1021.88 1022.35 1022.81 1023.26 1023.69 1024.11 1024.49 1024.84 1025.16 1025.43 1025.66 1025.86 1026.01 1026.14 1026.26 1026.36 1026.46 1026.56 1026.68 1026.81 1026.96 1027.13 1027.30 1027.49 1027.68 1027.87 1028.06 1028.25 1028.43 1028.59 1028.75 1028.89 1029.02 1029.13 1029.22 1029.29
1017.64 1018.26 1018.86 1019.42 1019.94 1020.45 1020.94 1021.42 1021.88 1022.34 1022.78 1023.22 1023.63 1024.02 1024.38 1024.71 1025.00 1025.25 1025.46 1025.65 1025.81 1025.95 1026.09 1026.23 1026.38 1026.54 1026.72 1026.91 1027.11 1027.32 1027.53 1027.73 1027.93 1028.12 1028.30 1028.46 1028.61 1028.74 1028.87 1028.99 1029.10 1029.21 1029.30 1029.38
Thickness
5630 5636 5636 5631 5632 5635 5632 5629 5623 5622 5621 5618 5615 5611 5606 5601 5596 5592 5587 5583 5579 5574 5570 5566 5563 5560 5558 5554 5551 5549 5546 5542 5539 5535 5532 5528 5524 5520 5517 5513 5508 5504 5500 5496
5622 5627 5628 5622 5622 5623 5622 5620 5619 5616 5610 5610 5605 5601 5595 5591 5587 5582 5578 5572 5567 5562 5558 5554 5549 5546 5542 5539 5536 5533 5530 5527 5523 5519 5516 5512 5508 5504 5499 5495 5491 5487 5483 5479
5611 5620 5620 5605 5606 5609 5607 5607 5607 5604 5602 5599 5594 5589 5585 5580 5577 5571 5566 5560 5555 5550 5545 5540 5536 5532 5529 5525 5522 5520 5516 5513 5509 5505 5501 5498 5494 5489 5484 5479 5475 5471 5467 5463
5602 5609 5597 5599 5608 5606 5600 5596 5597 5595 5592 5588 5582 5575 5571 5568 5565 5559 5553 5548 5543 5537 5531 5526 5523 5520 5516 5513 5511 5507 5504 5500 5496 5493 5489 5484 5480 5475 5470 5465 5461 5456 5452 5448
5592 5591 5592 5599 5601 5598 5593 5586 5587 5585 5580 5574 5569 5565 5557 5554 5551 5547 5541 5536 5531 5525 5521 5516 5512 5509 5506 5502 5499 5496 5492 5489 5485 5481 5476 5472 5467 5462 5457 5453 5448 5443 5438 5434
5590 5588 5584 5591 5598 5599 5591 5579 5579 5577 5571 5566 5563 5556 5547 5542 5538 5534 5529 5524 5519 5515 5510 5505 5502 5499 5496 5491 5489 5486 5482 5479 5475 5471 5466 5460 5455 5451 5446 5441 5435 5430 5426 5421
5584 5582 5583 5592 5594 5594 5579 5575 5573 5569 5563 5559 5553 5547 5539 5532 5527 5523 5519 5514 5510 5505 5500 5496 5493 5490 5486 5483 5480 5477 5473 5470 5465 5461 5456 5451 5446 5440 5435 5429 5424 5418 5413 5408
5579 5578 5580 5589 5589 5581 5575 5571 5567 5560 5554 5548 5542 5536 5530 5524 5518 5514 5509 5504 5500 5495 5490 5487 5485 5482 5478 5475 5472 5469 5465 5461 5457 5452 5448 5443 5436 5430 5424 5419 5413 5408 5403 5398
5582 5578 5581 5580 5579 5575 5570 5565 5559 5552 5546 5542 5535 5528 5522 5516 5510 5505 5501 5496 5491 5487 5483 5479 5477 5475 5471 5468 5465 5461 5457 5453 5449 5444 5439 5434 5429 5423 5417 5411 5406 5401 5396 5392
5584 5583 5580 5576 5572 5568 5565 5559 5553 5547 5541 5536 5529 5521 5514 5508 5502 5497 5492 5488 5484 5481 5477 5474 5471 5468 5465 5463 5459 5455 5451 5447 5443 5438 5433 5428 5423 5418 5412 5406 5401 5397 5393 5389
5583 5581 5577 5573 5567 5561 5556 5551 5545 5539 5534 5528 5522 5514 5508 5501 5496 5491 5487 5482 5478 5475 5472 5469 5466 5463 5460 5457 5453 5449 5446 5442 5437 5433 5429 5423 5418 5413 5409 5404 5399 5395 5391 5388
5587 5585 5577 5570 5563 5558 5552 5545 5539 5533 5525 5520 5516 5509 5502 5495 5490 5486 5482 5477 5473 5470 5467 5464 5461 5458 5456 5453 5449 5446 5442 5438 5434 5430 5425 5421 5416 5411 5407 5403 5400 5396 5392 5389
5594 5586 5577 5569 5560 5555 5547 5540 5534 5528 5522 5515 5509 5504 5498 5491 5486 5482 5478 5474 5469 5466 5463 5459 5457 5454 5452 5450 5447 5443 5439 5436 5432 5428 5424 5419 5415 5411 5406 5403 5400 5397 5394 5392
5592 5585 5573 5565 5557 5550 5544 5536 5529 5522 5516 5511 5505 5499 5494 5488 5483 5479 5475 5471 5467 5463 5460 5457 5454 5452 5449 5447 5445 5442 5439 5435 5431 5427 5423 5419 5414 5410 5406 5403 5400 5398 5396 5394
5591 5586 5575 5563 5554 5546 5539 5533 5525 5517 5511 5506 5501 5496 5492 5486 5481 5477 5473 5469 5465 5461 5457 5454 5452 5449 5447 5445 5443 5440 5437 5434 5430 5426 5422 5418 5414 5410 5407 5404 5401 5399 5397 5397
5584 5578 5571 5562 5552 5543 5536 5530 5522 5514 5509 5504 5499 5494 5490 5485 5480 5475 5471 5467 5462 5459 5455 5452 5449 5446 5444 5442 5440 5437 5435 5433 5430 5426 5422 5418 5414 5411 5408 5405 5402 5400 5399 5398
5583 5572 5565 5557 5549 5542 5535 5529 5522 5516 5509 5504 5498 5493 5488 5482 5477 5473 5469 5464 5460 5456 5452 5449 5446 5444 5442 5440 5437 5435 5433 5431 5428 5425 5421 5418 5415 5412 5409 5406 5404 5402 5401 5400
5592 5583 5573 5564 5553 5543 5534 5528 5522 5515 5509 5503 5497 5492 5486 5481 5477 5472 5467 5463 5459 5455 5451 5447 5444 5442 5440 5438 5436 5433 5431 5429 5426 5424 5421 5418 5415 5412 5410 5408 5406 5404 5403 5403
5587 5578 5569 5561 5553 5545 5536 5528 5521 5514 5509 5503 5497 5491 5487 5482 5477 5471 5466 5462 5458 5454 5450 5446 5443 5441 5439 5437 5436 5433 5430 5428 5426 5423 5420 5418 5415 5413 5411 5409 5407 5406 5405 5404
5583 5576 5567 5559 5551 5543 5535 5527 5520 5514 5509 5503 5498 5492 5486 5482 5477 5472 5466 5462 5457 5453 5449 5445 5443 5440 5439 5438 5437 5434 5432 5429 5426 5423 5421 5418 5416 5414 5412 5410 5408 5407 5406 5406
5582 5573 5565 5557 5549 5542 5535 5528 5521 5514 5509 5504 5498 5493 5488 5483 5478 5473 5467 5463 5459 5454 5450 5447 5444 5441 5440 5439 5438 5435 5433 5430 5427 5424 5422 5419 5417 5415 5413 5411 5409 5408 5407 5407
5580 5572 5564 5556 5548 5539 5533 5527 5521 5515 5509 5504 5500 5495 5489 5484 5479 5474 5470 5465 5461 5457 5453 5449 5446 5444 5442 5441 5439 5437 5434 5431 5428 5425 5423 5420 5418 5416 5414 5412 5411 5409 5408 5407
5578 5571 5563 5555 5547 5539 5531 5526 5521 5516 5510 5506 5501 5496 5491 5486 5481 5477 5472 5469 5465 5461 5457 5453 5450 5448 5446 5443 5441 5438 5436 5433 5430 5427 5424 5422 5419 5417 5415 5413 5412 5410 5409 5408
5575 5568 5561 5553 5545 5537 5529 5524 5520 5516 5512 5508 5503 5499 5494 5488 5483 5480 5476 5473 5469 5465 5461 5457 5455 5451 5448 5445 5443 5440 5437 5434 5431 5429 5426 5423 5421 5418 5416 5415 5413 5412 5411 5410
5572 5565 5557 5550 5543 5537 5530 5524 5518 5514 5511 5507 5504 5500 5497 5493 5489 5485 5480 5477 5473 5469 5464 5461 5458 5455 5451 5448 5445 5442 5440 5437 5434 5431 5428 5425 5423 5421 5419 5417 5416 5414 5413 5412
5568 5562 5556 5550 5545 5537 5530 5524 5518 5513 5510 5506 5504 5501 5498 5494 5491 5487 5484 5480 5476 5472 5468 5465 5461 5458 5455 5452 5449 5446 5443 5440 5436 5434 5431 5428 5426 5424 5422 5420 5419 5417 5416 5414
5563 5557 5551 5545 5539 5535 5530 5525 5520 5515 5511 5509 5506 5503 5500 5496 5493 5490 5487 5483 5479 5476 5472 5469 5466 5462 5459 5456 5453 5449 5446 5443 5440 5437 5435 5432 5430 5428 5426 5424 5422 5421 5419 5418